Overview Statistics Trail Chart Weather Telemetry Raw packets
 

This is the latest recevied weather packets stored in our database for station/object K4PAD. If no packets are shown the sender has not sent any weather packets the latest 10 day(s).

<< 8 9 10 11 12 13 14 >>
Time Temp. Humidity Pressure Rain* Wind** Luminosity Snow
1788549101 28.89° C 82% 1015.7 hPa 4.83 mm - 691 W/m² -
1788548797 30° C 76% 1015.6 hPa 1.27 mm - 135 W/m² -
1788548493 30.56° C 73% 1015.3 hPa 0 mm - 103 W/m² -
1788548190 31.11° C 74% 1015.7 hPa 0 mm - 62 W/m² -
1788547907 31.11° C 72% 1015.3 hPa 0 mm - 105 W/m² -
1788547588 31.67° C 71% 1015.6 hPa 0 mm - 186 W/m² -
1788547284 31.67° C 70% 1015.5 hPa 0 mm - 265 W/m² -
1788546980 31.67° C 72% 1015.4 hPa 0 mm - 289 W/m² -
1788546680 31.11° C 78% 1015.7 hPa 0 mm - 1367 W/m² -
1788546375 30.56° C 79% 1015.7 hPa 0 mm - 918 W/m² -
1788546070 31.11° C 74% 1015.9 hPa 0 mm - 398 W/m² -
1788545767 31.67° C 70% 1016.1 hPa 0 mm - 182 W/m² -
1788545466 32.22° C 69% 1016.2 hPa 0 mm - 175 W/m² -
1788545161 32.22° C 69% 1015.9 hPa 0 mm - 506 W/m² -
1788544856 32.22° C 69% 1015.8 hPa 0 mm - 203 W/m² -
1788544550 32.78° C 67% 1015.9 hPa 0 mm - 291 W/m² -
1788544248 32.78° C 67% 1015.9 hPa 0 mm - 1017 W/m² -
1788543943 32.78° C 68% 1016 hPa 0 mm - 525 W/m² -
1788543640 32.78° C 68% 1016.2 hPa 0 mm - 1232 W/m² -
1788543340 33.33° C 66% 1016.2 hPa 0 mm - 287 W/m² -
1788543035 33.33° C 66% 1016.2 hPa 0 mm - 1268 W/m² -
1788542731 33.33° C 68% 1016.5 hPa 0 mm - 355 W/m² -
1788542430 32.78° C 70% 1016.4 hPa 0 mm - 1257 W/m² -
1788542126 32.78° C 68% 1016.5 hPa 0 mm - 392 W/m² -
1788541821 32.78° C 70% 1016.7 hPa 0 mm - 1235 W/m² -

* Rain latest hour (hover to see other rain measurements)
** Current wind speed in m/s (hover to see current wind gust speed)